Location: Chenereilles
(45.4866°N, 4.0790°E)
Time: 21:25:53
(UTC+00:00)

Cosmos 2082 - Pass Details

Date: 12 November 2019
Orbit: 835 x 854 km, 71.0° (Epoch: 06 December)

Event Time Altitude Azimuth Distance (km) Brightness Sun altitude
Rises 18:04:20 0° 336° (NNW) 3,397 7.1 -18.9°
Reaches altitude 10° 18:06:50 10° 340° (NNW) 2,458 6.3 -19.3°
Maximum altitude 18:12:23 59° 60° (ENE) 964 3.7 -20.3°
Enters shadow 18:14:57 31° 127° (SE) 1,419 4.5 -20.7°
